TimeCST,TemperatureF,Dew PointF,Humidity,Sea Level PressureIn,VisibilityMPH,Wind Direction,Wind SpeedMPH,Gust SpeedMPH,PrecipitationIn,Events,Conditions,WindDirDegrees,DateUTC
12:15 AM,37.9,20.1,49,29.83,10.0,SW,8.1,-,N/A,,Mostly Cloudy,230,2013-02-06 06:15:00
12:35 AM,39.4,19.4,45,29.82,10.0,WSW,5.8,-,N/A,,Overcast,240,2013-02-06 06:35:00
1:15 AM,38.3,20.3,48,29.82,10.0,West,5.8,-,N/A,,Overcast,260,2013-02-06 07:15:00
1:35 AM,37.6,20.8,51,29.82,10.0,West,4.6,-,N/A,,Overcast,260,2013-02-06 07:35:00
1:55 AM,36.9,21.2,53,29.81,10.0,West,6.9,-,N/A,,Overcast,270,2013-02-06 07:55:00
2:35 AM,37.8,21.2,51,29.80,10.0,SW,4.6,-,N/A,,Overcast,230,2013-02-06 08:35:00
2:55 AM,37.4,21.6,53,29.80,10.0,SW,6.9,-,N/A,,Overcast,220,2013-02-06 08:55:00
3:15 AM,37.6,21.6,52,29.80,10.0,SW,6.9,-,N/A,,Overcast,220,2013-02-06 09:15:00
3:35 AM,37.2,21.7,54,29.79,10.0,SW,6.9,-,N/A,,Overcast,230,2013-02-06 09:35:00
3:55 AM,37.6,21.6,52,29.79,10.0,WSW,8.1,-,N/A,,Overcast,240,2013-02-06 09:55:00
4:15 AM,37.9,21.2,51,29.78,10.0,SW,8.1,-,N/A,,Overcast,230,2013-02-06 10:15:00
4:35 AM,37.6,21.7,53,29.78,10.0,SW,8.1,-,N/A,,Mostly Cloudy,230,2013-02-06 10:35:00
4:55 AM,37.8,21.2,51,29.77,10.0,WSW,6.9,-,N/A,,Scattered Clouds,240,2013-02-06 10:55:00
5:15 AM,38.5,21.4,50,29.78,10.0,West,8.1,-,N/A,,Mostly Cloudy,260,2013-02-06 11:15:00
5:35 AM,37.2,22.1,54,29.78,10.0,Calm,Calm,-,N/A,,Mostly Cloudy,0,2013-02-06 11:35:00
5:55 AM,40.1,23.0,51,29.77,10.0,WNW,4.6,-,N/A,,Overcast,290,2013-02-06 11:55:00
6:15 AM,40.8,23.4,50,29.77,10.0,West,5.8,-,N/A,,Overcast,270,2013-02-06 12:15:00
6:35 AM,41.2,23.9,50,29.77,10.0,NW,5.8,-,N/A,,Overcast,320,2013-02-06 12:35:00
6:55 AM,47.8,23.9,39,29.77,10.0,WNW,15.0,-,N/A,,Overcast,290,2013-02-06 12:55:00
7:15 AM,47.8,23.9,39,29.77,10.0,NW,12.7,-,N/A,,Overcast,310,2013-02-06 13:15:00
7:35 AM,48.2,23.7,38,29.77,10.0,WNW,17.3,-,N/A,,Overcast,300,2013-02-06 13:35:00
7:55 AM,47.3,23.9,40,29.78,10.0,WNW,13.8,-,N/A,,Overcast,300,2013-02-06 13:55:00
8:15 AM,47.3,23.7,40,29.79,10.0,WNW,12.7,-,N/A,,Overcast,300,2013-02-06 14:15:00
8:55 AM,46.8,23.5,40,29.80,10.0,WNW,10.4,-,N/A,,Overcast,300,2013-02-06 14:55:00
9:15 AM,46.6,23.7,41,29.80,10.0,WNW,12.7,-,N/A,,Overcast,300,2013-02-06 15:15:00
9:35 AM,46.4,23.9,41,29.80,10.0,WNW,12.7,-,N/A,,Overcast,290,2013-02-06 15:35:00
9:55 AM,47.5,23.4,39,29.80,10.0,WNW,12.7,18.4,N/A,,Overcast,300,2013-02-06 15:55:00
10:15 AM,47.1,23.9,40,29.81,10.0,NW,9.2,-,N/A,,Overcast,320,2013-02-06 16:15:00
10:35 AM,46.6,23.9,41,29.81,10.0,WNW,9.2,-,N/A,,Overcast,300,2013-02-06 16:35:00
10:55 AM,47.3,23.9,40,29.81,-9999.0,NW,9.2,-,0.03,,Overcast,310,2013-02-06 16:55:00
11:15 AM,48.2,23.5,38,29.82,-9999.0,NW,12.7,-,N/A,,Overcast,320,2013-02-06 17:15:00
11:35 AM,48.0,23.9,39,29.82,10.0,WNW,10.4,-,N/A,,Overcast,300,2013-02-06 17:35:00
11:55 AM,48.7,22.8,36,29.82,10.0,WNW,12.7,18.4,N/A,,Overcast,300,2013-02-06 17:55:00
12:15 PM,48.9,23.7,37,29.82,10.0,North,-9999.0,-,N/A,,Overcast,0,2013-02-06 18:15:00
12:35 PM,51.1,21.4,31,29.81,10.0,North,-9999.0,-,N/A,,Mostly Cloudy,0,2013-02-06 18:35:00
12:55 PM,51.8,21.0,30,29.81,10.0,North,-9999.0,-,N/A,,Mostly Cloudy,0,2013-02-06 18:55:00
1:15 PM,52.7,19.9,28,29.81,10.0,NW,15.0,19.6,N/A,,Scattered Clouds,320,2013-02-06 19:15:00
1:35 PM,52.5,19.4,27,29.81,10.0,NW,16.1,-,N/A,,Scattered Clouds,320,2013-02-06 19:35:00
1:55 PM,52.7,16.3,24,29.80,10.0,NW,18.4,27.6,N/A,,Mostly Cloudy,320,2013-02-06 19:55:00
2:15 PM,53.6,13.1,20,29.80,10.0,NW,17.3,23.0,N/A,,Scattered Clouds,310,2013-02-06 20:15:00
2:35 PM,53.6,9.9,17,29.80,10.0,NW,17.3,21.9,N/A,,Scattered Clouds,320,2013-02-06 20:35:00
2:55 PM,53.6,8.6,16,29.80,10.0,NW,15.0,21.9,N/A,,Scattered Clouds,310,2013-02-06 20:55:00
3:15 PM,52.7,13.5,21,29.81,10.0,NW,15.0,21.9,N/A,,Mostly Cloudy,320,2013-02-06 21:15:00
3:35 PM,51.8,14.2,22,29.81,10.0,NW,15.0,19.6,N/A,,Scattered Clouds,320,2013-02-06 21:35:00
3:55 PM,50.5,15.1,24,29.82,10.0,NNW,16.1,23.0,N/A,,Clear,340,2013-02-06 21:55:00
4:15 PM,47.8,15.8,28,29.83,10.0,North,13.8,-,N/A,,Clear,350,2013-02-06 22:15:00
4:35 PM,47.1,15.8,29,29.83,10.0,NNW,13.8,17.3,N/A,,Scattered Clouds,340,2013-02-06 22:35:00
4:55 PM,46.6,16.5,30,29.84,10.0,NNW,8.1,-,N/A,,Clear,340,2013-02-06 22:55:00
5:15 PM,46.4,17.4,31,29.84,10.0,NNW,10.4,-,N/A,,Clear,340,2013-02-06 23:15:00
5:35 PM,45.7,19.2,35,29.85,10.0,NNW,13.8,19.6,N/A,,Clear,340,2013-02-06 23:35:00
5:55 PM,45.0,20.8,38,29.86,10.0,NNW,13.8,-,N/A,,Clear,340,2013-02-06 23:55:00
6:15 PM,43.7,21.0,41,29.87,10.0,NNW,11.5,-,N/A,,Clear,340,2013-02-07 00:15:00
6:35 PM,41.9,21.6,44,29.88,10.0,North,11.5,-,N/A,,Scattered Clouds,360,2013-02-07 00:35:00
6:55 PM,40.3,22.1,48,29.89,10.0,North,12.7,-,N/A,,Scattered Clouds,10,2013-02-07 00:55:00
7:15 PM,38.3,22.8,54,29.91,10.0,North,11.5,-,N/A,,Clear,10,2013-02-07 01:15:00
7:35 PM,36.9,23.0,57,29.91,10.0,NNE,11.5,-,N/A,,Clear,20,2013-02-07 01:35:00
7:55 PM,35.4,23.2,61,29.92,10.0,NNE,10.4,-,N/A,,Clear,20,2013-02-07 01:55:00
8:15 PM,35.1,23.9,64,29.94,10.0,North,9.2,-,N/A,,Clear,10,2013-02-07 02:15:00
8:35 PM,34.7,23.9,65,29.95,10.0,NNW,4.6,-,N/A,,Scattered Clouds,330,2013-02-07 02:35:00
8:55 PM,34.2,24.8,69,29.95,10.0,NNE,6.9,-,N/A,,Scattered Clouds,20,2013-02-07 02:55:00
9:15 PM,33.6,24.4,69,29.96,10.0,NNE,5.8,-,N/A,,Scattered Clouds,20,2013-02-07 03:15:00
9:35 PM,33.1,24.4,71,29.98,10.0,NNW,4.6,-,N/A,,Scattered Clouds,330,2013-02-07 03:35:00
9:55 PM,32.9,24.6,72,29.99,10.0,NNW,5.8,-,N/A,,Scattered Clouds,330,2013-02-07 03:55:00
10:15 PM,33.6,25.0,71,30.01,10.0,WNW,11.5,-,N/A,,Mostly Cloudy,300,2013-02-07 04:15:00
10:35 PM,34.5,24.8,68,30.02,10.0,NW,9.2,-,N/A,,Overcast,320,2013-02-07 04:35:00
10:55 PM,35.8,25.5,66,30.03,10.0,NW,8.1,-,N/A,,Overcast,320,2013-02-07 04:55:00
11:15 PM,35.8,25.5,66,30.02,10.0,North,5.8,-,N/A,,Overcast,360,2013-02-07 05:15:00
11:35 PM,35.2,25.3,67,30.03,10.0,North,6.9,-,N/A,,Overcast,350,2013-02-07 05:35:00
11:55 PM,35.6,25.7,67,30.04,10.0,NNE,10.4,-,N/A,,Overcast,20,2013-02-07 05:55:00